Flag for China Weather past 2 weeks in Tianjin, Tianjin Municipality, China

Now
93 °F

Passing clouds.


Feels Like: 91 °F
Forecast: 74 / 96 °F
Wind: 10 mph from Southwest

Location: Tianjin / Zhangguizhu

Current Time: Jul 26, 2014 at 2:00:26 PM

Latest Report: Jul 26, 2014 at 1:30 PM


Visibility: N/A

Pressure: 29.80 "Hg

Humidity: 28%

Dew point: 55 °F

Location of TianjinLocation

Historic Weather in Tianjin — Graph

°F

Tianjin temperature yesterday

Maximum temperature yesterday: 88 °F (at 3:30 PM)
Minimum temperature yesterday: 70 °F (at 3:00 AM)
Average temperature yesterday: 79 °F

Past Weeks' High & Low Weather Summary

 TemperatureHumidityPressure
High100 °F (Jul 14, 3:30 PM)94% (Jul 17, 2:00 AM)29.83 "Hg (Jul 17, 2:00 AM)
Low70 °F (Jul 17, 3:30 AM)18% (Jul 14, 1:00 PM)29.50 "Hg (Jul 11, 2:00 PM)
Average84 °F58%29.66 "Hg
* Reported Jul 11 1:00 PM — Jul 26 1:00 PM, Tianjin, Weather by CustomWeather, © 2014

Note: Actual official high and low records may vary slightly from our data, if they occured in-between our weather recording intervals... More about our weather records

Advertising

Tianjin weather history for previous 24 hours

 ConditionsComfort  
Time TempWeatherWind HumidityBarometerVisibility
1:00 PM
Jul 26
93 °FPassing clouds.8 mph28%29.80 "HgN/A
12:30 PM93 °FPassing clouds.8 mph30%29.80 "HgN/A
12:00 PM91 °FPassing clouds.8 mph28%29.80 "HgN/A
11:30 AM91 °FClear.8 mph32%29.83 "Hg5 mi
11:00 AM90 °FClear.8 mph36%29.83 "Hg5 mi
10:30 AM88 °FClear.8 mph40%29.83 "Hg4 mi
10:00 AM86 °FClear.8 mph43%29.83 "Hg4 mi
9:30 AM86 °FClear.8 mph38%29.83 "Hg4 mi
9:00 AM84 °FClear.10 mph35%29.83 "Hg4 mi
8:30 AM82 °FClear.8 mph35%29.83 "Hg4 mi
8:00 AM82 °FClear.3 mph37%29.80 "Hg4 mi
7:30 AM81 °FClear.6 mph42%29.80 "Hg4 mi
7:00 AM79 °FClear.8 mph45%29.80 "Hg4 mi
6:30 AM79 °FHaze.8 mph42%29.80 "Hg3 mi
6:00 AM77 °FHaze.6 mph44%29.77 "Hg3 mi
5:30 AM77 °FHaze.3 mph47%29.77 "Hg3 mi
5:00 AM77 °FHaze.8 mph47%29.77 "Hg3 mi
4:30 AM77 °FHaze.6 mph51%29.77 "Hg3 mi
4:00 AM77 °FHaze.6 mph51%29.74 "Hg3 mi
3:30 AM77 °FHaze.6 mph54%29.74 "Hg3 mi
3:00 AM77 °FHaze.6 mph57%29.74 "Hg3 mi
2:30 AM77 °FHaze.3 mph57%29.74 "Hg3 mi
2:00 AM77 °FHaze.6 mph57%29.74 "Hg3 mi
1:30 AM77 °FHaze.6 mph57%29.74 "Hg3 mi
1:00 AM77 °FHaze.3 mph57%29.74 "Hg2 mi
12:30 AM79 °FHaze.3 mph54%29.74 "Hg2 mi
12:00 AM79 °FHaze.6 mph54%29.74 "Hg2 mi
11:30 PM
Jul 25
79 °FHaze.8 mph58%29.74 "Hg2 mi
11:00 PM79 °FHaze.6 mph61%29.74 "Hg2 mi
10:30 PM79 °FHaze.6 mph61%29.74 "Hg2 mi
10:00 PM79 °FHaze.6 mph65%29.74 "Hg2 mi
9:30 PM81 °FHaze.3 mph62%29.74 "Hg2 mi
9:00 PM81 °FHaze.3 mph62%29.71 "Hg2 mi
8:30 PM81 °FHaze.6 mph62%29.71 "Hg2 mi
8:00 PM81 °FHaze.6 mph62%29.68 "Hg2 mi
7:30 PM82 °FHaze.8 mph58%29.68 "Hg3 mi
7:00 PM84 °FClear.3 mph43%29.68 "Hg4 mi
6:30 PM86 °FClear.1 mph38%29.65 "Hg4 mi
6:00 PM86 °FClear.3 mph38%29.65 "Hg4 mi
5:30 PM88 °FClear.6 mph33%29.65 "Hg4 mi
5:00 PM88 °FClear.6 mph38%29.65 "Hg4 mi
4:30 PM88 °FClear.8 mph38%29.65 "Hg4 mi
4:00 PM88 °FClear.8 mph40%29.68 "Hg4 mi
3:30 PM88 °FHaze.8 mph43%29.68 "Hg3 mi
3:00 PM86 °FHaze.3 mph49%29.68 "Hg3 mi
2:30 PM86 °FHaze.6 mph49%29.68 "Hg3 mi
2:00 PM86 °FHaze.8 mph49%29.68 "Hg2 mi
Weather by CustomWeather, © 2014

See weather overviewHow to use our weather pages